Weather History for KIWD - July, 2014

Change the Weather History Date:

Sunday, July 27, 2014

  Actual Average Record
Temperature  
Mean Temperature 56 °F -  
Max Temperature 62 °F 74 °F 84 °F (2002)
Min Temperature 51 °F 54 °F 44 °F (1996)
Degree Days  
Heating Degree Days 8    
Growing Degree Days 6 (Base 50)    
Moisture  
Dew Point 53 °F    
Average Humidity 89    
Maximum Humidity 100    
Minimum Humidity 68    
Precipitation  
Precipitation 0.00 in - - ()
Sea Level Pressure  
Sea Level Pressure 29.97 in    
Wind  
Wind Speed 7 mph (North)    
Max Wind Speed 10 mph    
Max Gust Speed -    
Visibility 8 miles    
Events      
Averages and records for this station are not official NWS values.
T = Trace of Precipitation, MM = Missing Value Source: NWS Daily Summary

Daily Weather History Graph

Daily Weather History Graph

Search for Another Location

Airport or City:

Trip Planner

Search our weather history database for the weather conditions in past years. The results will help you decide how hot, cold, wet, or windy it might be!

Date:

Astronomy

Jul. 27, 2014 Rise Set
Actual Time 5:35 AM CDT 8:37 PM CDT
Civil Twilight 4:59 AM CDT 9:13 PM CDT
Nautical Twilight 4:13 AM CDT 9:59 PM CDT
Astronomical Twilight 3:17 AM CDT 10:54 PM CDT
Moon 6:29 AM CDT (7/27) 8:39 PM CDT (7/27)
Length of Visible Light 16h 13m
Length of Day
15h 02m
New Moon, 1% of the Moon is Illuminated
Jul 27
New Moon
Aug 3
First Quarter
Aug 10
Full
Aug 17
Last Quarter
Aug 25
New

Hourly Weather History & Observations

Time (CDT) Temp. Dew Point Humidity Pressure Visibility Wind Dir Wind Speed Gust Speed Precip Events Conditions
11:55 AM 55.4 °F 53.6 °F 94% 29.83 in 0.2 mi North 9.2 mph - N/A   Overcast
12:35 PM 53.6 °F 53.6 °F 100% 29.84 in 0.2 mi North 6.9 mph - N/A   Overcast
1:15 PM 53.6 °F 53.6 °F 100% 29.86 in 0.8 mi North 10.4 mph - N/A   Overcast
1:35 PM 53.6 °F 53.6 °F 100% 29.87 in 0.8 mi NNE 8.1 mph - N/A   Overcast
1:55 PM 53.6 °F 53.6 °F 100% 29.89 in 4.0 mi NNE 9.2 mph - N/A   Overcast
2:15 PM 53.6 °F 53.6 °F 100% 29.90 in 10.0 mi North 8.1 mph - N/A   Overcast
2:35 PM 55.4 °F 55.4 °F 100% 29.91 in 7.0 mi NNE 9.2 mph - N/A   Overcast
2:55 PM 55.4 °F 55.4 °F 100% 29.92 in 10.0 mi NNE 9.2 mph - N/A   Overcast
3:15 PM 55.4 °F 55.4 °F 100% 29.93 in 9.0 mi NNE 6.9 mph - N/A   Mostly Cloudy
3:35 PM 57.2 °F 55.4 °F 94% 29.95 in 10.0 mi NNE 6.9 mph - N/A   Overcast
3:55 PM 57.2 °F 53.6 °F 88% 29.96 in 10.0 mi North 8.1 mph - N/A   Overcast
4:15 PM 57.2 °F 53.6 °F 88% 29.96 in 10.0 mi NE 4.6 mph - N/A   Overcast
4:35 PM 59.0 °F 51.8 °F 77% 29.97 in 10.0 mi NE 5.8 mph - N/A   Overcast
4:55 PM 60.8 °F 53.6 °F 77% 29.97 in 10.0 mi NE 5.8 mph - N/A   Overcast
5:15 PM 60.8 °F 53.6 °F 77% 29.97 in 10.0 mi NNE 8.1 mph - N/A   Scattered Clouds
5:35 PM 62.6 °F 53.6 °F 72% 29.98 in 10.0 mi NNE 3.5 mph - N/A   Clear
5:55 PM 62.6 °F 53.6 °F 72% 29.99 in 10.0 mi North 5.8 mph - N/A   Partly Cloudy
6:15 PM 62.6 °F 53.6 °F 72% 29.99 in 10.0 mi North 5.8 mph - N/A   Scattered Clouds
6:35 PM 62.6 °F 53.6 °F 72% 30.00 in 10.0 mi North 6.9 mph - N/A   Mostly Cloudy
6:55 PM 62.6 °F 51.8 °F 68% 30.00 in 10.0 mi North 8.1 mph - N/A   Mostly Cloudy
7:15 PM 60.8 °F 53.6 °F 77% 30.01 in 10.0 mi NNW 4.6 mph - N/A   Mostly Cloudy
7:35 PM 60.8 °F 53.6 °F 77% 30.01 in 10.0 mi NNW 4.6 mph - N/A   Mostly Cloudy
7:55 PM 57.2 °F 53.6 °F 88% 30.02 in 10.0 mi NNW 3.5 mph - N/A   Scattered Clouds
8:15 PM 57.2 °F 53.6 °F 88% 30.03 in 10.0 mi North 3.5 mph - N/A   Scattered Clouds
8:35 PM 55.4 °F 53.6 °F 94% 30.03 in 10.0 mi Calm Calm - N/A   Mostly Cloudy
8:55 PM 55.4 °F 55.4 °F 100% 30.04 in 10.0 mi North 3.5 mph - N/A   Overcast
9:15 PM 55.4 °F 53.6 °F 94% 30.05 in 10.0 mi Calm Calm - N/A   Mostly Cloudy
9:35 PM 55.4 °F 53.6 °F 94% 30.06 in 10.0 mi Calm Calm - N/A   Mostly Cloudy
9:55 PM 53.6 °F 53.6 °F 100% 30.06 in 10.0 mi Calm Calm - N/A   Scattered Clouds
10:15 PM 51.8 °F 50.0 °F 94% 30.06 in 1.5 mi Calm Calm - N/A   Clear
10:35 PM 51.8 °F 50.0 °F 94% 30.06 in 3.0 mi Calm Calm - N/A   Scattered Clouds
10:55 PM 51.8 °F 51.8 °F 100% 30.07 in 1.5 mi Calm Calm - N/A   Scattered Clouds